When you browse on this site, cookies collect data to enhance your experience and personalize the content and advertising you see.
Visit our Privacy Policy to learn more. By continuing to use the site, you agree to this use of cookies and data.
  • In Czech Republic
  • List of Countries
  • For 7 days
  • Water Temperature
  • Weather Map
  • Weather Widgets
  • user-avatar
    Login

    Hourly Weather Igls

    Today, 23 August, Friday

    Time Temperature Precipitation Wind Pressure Humidity
    00:00 +13°C° 0 mm 0 mps 690 mmHg 95%
    01:00 +13°C° 0 mm 0 mps 691 mmHg 95%
    02:00 +13°C° 0 mm 0 mps 690 mmHg 94%
    03:00 +13°C° 0 mm 0 mps 690 mmHg 94%
    04:00 +13°C° 0 mm 0 mps 690 mmHg 93%
    05:00 +14°C° 0 mm 0 mps 690 mmHg 91%
    06:00 +15°C° 0 mm 0 mps 691 mmHg 89%
    07:00 +18°C° 0 mm 1 mps 691 mmHg 85%
    08:00 +20°C° 0 mm 1 mps 691 mmHg 78%
    09:00 +22°C° 0 mm 1 mps 691 mmHg 71%
    10:00 +24°C° 0 mm 1 mps 692 mmHg 65%
    11:00 +24°C° 0.4 mm 1 mps 692 mmHg 63%
    12:00 +25°C° 0.4 mm 2 mps 691 mmHg 61%
    13:00 +26°C° 0.4 mm 2 mps 691 mmHg 59%
    14:00 +25°C° 0.7 mm 2 mps 691 mmHg 65%
    15:00 +24°C° 0.7 mm 2 mps 691 mmHg 71%
    16:00 +24°C° 0.7 mm 2 mps 690 mmHg 76%
    17:00 +22°C° 0.6 mm 1 mps 690 mmHg 82%
    18:00 +21°C° 0.6 mm 1 mps 690 mmHg 87%
    19:00 +19°C° 0.6 mm 1 mps 689 mmHg 93%
    20:00 +19°C° 0.2 mm 1 mps 689 mmHg 92%
    21:00 +18°C° 0.2 mm 1 mps 689 mmHg 91%
    22:00 +18°C° 0.2 mm 1 mps 690 mmHg 91%
    23:00 +16°C° 0 mm 1 mps 689 mmHg 90%

    Tomorrow, 24 August, Saturday

    Time Temperature Precipitation Wind Pressure Humidity
    00:00 +16°C° 0 mm 1 mps 689 mmHg 89%
    01:00 +16°C° 0 mm 1 mps 689 mmHg 88%
    02:00 +16°C° 0 mm 1 mps 689 mmHg 87%
    03:00 +16°C° 0 mm 1 mps 688 mmHg 87%
    04:00 +15°C° 0 mm 2 mps 688 mmHg 86%
    05:00 +16°C° 0 mm 1 mps 688 mmHg 84%
    06:00 +18°C° 0 mm 1 mps 689 mmHg 82%
    07:00 +19°C° 0 mm 1 mps 689 mmHg 80%
    08:00 +22°C° 0 mm 1 mps 689 mmHg 71%
    09:00 +25°C° 0 mm 1 mps 690 mmHg 61%
    10:00 +27°C° 0 mm 1 mps 690 mmHg 51%
    11:00 +28°C° 0.3 mm 1 mps 690 mmHg 50%
    12:00 +28°C° 0.3 mm 1 mps 690 mmHg 50%
    13:00 +28°C° 0.3 mm 1 mps 689 mmHg 49%
    14:00 +27°C° 1.2 mm 1 mps 689 mmHg 57%
    15:00 +26°C° 1.2 mm 1 mps 689 mmHg 65%
    16:00 +25°C° 1.2 mm 1 mps 688 mmHg 72%
    17:00 +23°C° 1.2 mm 1 mps 688 mmHg 78%
    18:00 +22°C° 1.2 mm 1 mps 688 mmHg 83%
    19:00 +18°C° 1.2 mm 0 mps 687 mmHg 88%
    20:00 +20°C° 0.5 mm 1 mps 688 mmHg 89%
    21:00 +19°C° 0.5 mm 1 mps 688 mmHg 90%
    22:00 +19°C° 0.5 mm 1 mps 688 mmHg 91%
    23:00 +18°C° 0 mm 1 mps 688 mmHg 90%

    Day after tomorrow, 25 August, Sunday

    Time Temperature Precipitation Wind Pressure Humidity
    00:00 +18°C° 0 mm 1 mps 687 mmHg 90%
    01:00 +16°C° 0 mm 1 mps 687 mmHg 90%
    02:00 +16°C° 0 mm 1 mps 687 mmHg 89%
    03:00 +16°C° 0 mm 1 mps 687 mmHg 89%
    04:00 +16°C° 0 mm 1 mps 687 mmHg 89%
    05:00 +18°C° 0 mm 1 mps 687 mmHg 86%
    06:00 +19°C° 0 mm 1 mps 687 mmHg 84%
    07:00 +18°C° 0 mm 0 mps 688 mmHg 82%
    08:00 +22°C° 0.2 mm 1 mps 688 mmHg 76%
    09:00 +24°C° 0.2 mm 1 mps 688 mmHg 69%
    10:00 +26°C° 0.2 mm 1 mps 689 mmHg 63%
    11:00 +26°C° 1.1 mm 1 mps 689 mmHg 64%
    12:00 +26°C° 1.1 mm 1 mps 688 mmHg 66%
    13:00 +26°C° 1.1 mm 1 mps 688 mmHg 67%
    14:00 +25°C° 1.4 mm 1 mps 688 mmHg 72%
    15:00 +25°C° 1.4 mm 1 mps 688 mmHg 76%
    16:00 +24°C° 1.4 mm 1 mps 688 mmHg 80%
    17:00 +23°C° 0.8 mm 1 mps 687 mmHg 82%
    18:00 +20°C° 0.8 mm 0 mps 687 mmHg 85%
    19:00 +18°C° 0.8 mm 0 mps 687 mmHg 88%
    20:00 +18°C° 0.1 mm 0 mps 687 mmHg 89%
    21:00 +19°C° 0.1 mm 1 mps 687 mmHg 90%
    22:00 +18°C° 0.1 mm 1 mps 688 mmHg 91%
    23:00 +16°C° 0 mm 1 mps 687 mmHg 91%

    26 August, Monday

    Time Temperature Precipitation Wind Pressure Humidity
    00:00 +16°C° 0 mm 1 mps 687 mmHg 91%
    01:00 +16°C° 0 mm 1 mps 687 mmHg 91%
    02:00 +15°C° 0 mm 1 mps 687 mmHg 91%
    03:00 +15°C° 0 mm 1 mps 687 mmHg 91%
    04:00 +15°C° 0 mm 1 mps 687 mmHg 91%
    05:00 +16°C° 0 mm 1 mps 687 mmHg 89%
    06:00 +17°C° 0 mm 0 mps 687 mmHg 86%
    07:00 +18°C° 0 mm 0 mps 688 mmHg 84%
    08:00 +22°C° 0.1 mm 1 mps 688 mmHg 76%
    09:00 +24°C° 0.1 mm 1 mps 688 mmHg 69%
    10:00 +26°C° 0.1 mm 1 mps 689 mmHg 61%
    11:00 +27°C° 1 mm 1 mps 689 mmHg 60%
    12:00 +27°C° 1 mm 1 mps 688 mmHg 60%
    13:00 +27°C° 1 mm 1 mps 688 mmHg 59%
    14:00 +27°C° 1.5 mm 1 mps 688 mmHg 62%
    15:00 +26°C° 1.5 mm 1 mps 688 mmHg 66%
    16:00 +26°C° 1.5 mm 1 mps 687 mmHg 69%
    17:00 +24°C° 0.9 mm 1 mps 687 mmHg 75%
    18:00 +20°C° 0.9 mm 0 mps 687 mmHg 81%
    19:00 +19°C° 0.9 mm 0 mps 686 mmHg 87%
    20:00 +18°C° 0.2 mm 0 mps 687 mmHg 87%
    21:00 +19°C° 0.2 mm 1 mps 687 mmHg 88%
    22:00 +19°C° 0.2 mm 1 mps 687 mmHg 88%
    23:00 +18°C° 0 mm 1 mps 687 mmHg 88%

    27 August, Tuesday

    Time Temperature Precipitation Wind Pressure Humidity
    00:00 +18°C° 0 mm 1 mps 687 mmHg 88%
    01:00 +18°C° 0 mm 1 mps 687 mmHg 88%
    02:00 +16°C° 0 mm 1 mps 686 mmHg 88%
    03:00 +16°C° 0 mm 1 mps 686 mmHg 88%
    04:00 +16°C° 0 mm 1 mps 686 mmHg 89%
    05:00 +18°C° 0 mm 1 mps 687 mmHg 87%
    06:00 +19°C° 0 mm 1 mps 687 mmHg 85%
    07:00 +21°C° 0 mm 1 mps 687 mmHg 83%
    08:00 +23°C° 0.1 mm 1 mps 688 mmHg 74%
    09:00 +25°C° 0.1 mm 1 mps 688 mmHg 65%
    10:00 +28°C° 0.1 mm 1 mps 688 mmHg 56%
    11:00 +28°C° 0.8 mm 1 mps 688 mmHg 54%
    12:00 +28°C° 0.8 mm 1 mps 688 mmHg 52%
    13:00 +29°C° 0.8 mm 1 mps 688 mmHg 50%
    14:00 +28°C° 0.7 mm 1 mps 688 mmHg 52%
    15:00 +28°C° 0.7 mm 1 mps 687 mmHg 54%
    16:00 +27°C° 0.7 mm 1 mps 687 mmHg 56%
    17:00 +25°C° 0.4 mm 1 mps 687 mmHg 65%
    18:00 +23°C° 0.4 mm 1 mps 687 mmHg 74%
    19:00 +21°C° 0.4 mm 1 mps 686 mmHg 83%
    20:00 +21°C° 0.3 mm 1 mps 687 mmHg 84%
    21:00 +20°C° 0.3 mm 1 mps 687 mmHg 86%
    22:00 +18°C° 0.3 mm 2 mps 687 mmHg 88%
    23:00 +18°C° 0 mm 2 mps 687 mmHg 88%

    28 August, Wednesday

    Time Temperature Precipitation Wind Pressure Humidity
    00:00 +18°C° 0 mm 2 mps 687 mmHg 88%
    01:00 +18°C° 0 mm 2 mps 687 mmHg 88%
    02:00 +17°C° 0 mm 2 mps 687 mmHg 88%
    03:00 +17°C° 0 mm 2 mps 687 mmHg 88%
    04:00 +17°C° 0 mm 2 mps 687 mmHg 87%
    05:00 +18°C° 0 mm 2 mps 687 mmHg 86%
    06:00 +20°C° 0 mm 1 mps 687 mmHg 84%
    07:00 +20°C° 0 mm 1 mps 688 mmHg 83%
    08:00 +22°C° 0.1 mm 1 mps 688 mmHg 76%
    09:00 +24°C° 0.1 mm 1 mps 688 mmHg 70%
    10:00 +26°C° 0.1 mm 1 mps 688 mmHg 63%
    11:00 +25°C° 1.2 mm 1 mps 688 mmHg 68%
    12:00 +25°C° 1.2 mm 1 mps 688 mmHg 73%
    13:00 +25°C° 1.2 mm 1 mps 688 mmHg 77%
    14:00 +25°C° 1.6 mm 1 mps 688 mmHg 79%
    15:00 +24°C° 1.6 mm 1 mps 688 mmHg 80%
    16:00 +24°C° 1.6 mm 1 mps 687 mmHg 82%
    17:00 +23°C° 1 mm 1 mps 688 mmHg 86%
    18:00 +22°C° 1 mm 1 mps 688 mmHg 90%
    19:00 +20°C° 1 mm 1 mps 688 mmHg 94%
    20:00 +20°C° 1.2 mm 1 mps 688 mmHg 95%
    21:00 +20°C° 1.2 mm 1 mps 688 mmHg 95%
    22:00 +19°C° 1.2 mm 1 mps 689 mmHg 95%
    23:00 +17°C° 0.5 mm 0 mps 689 mmHg 95%
    Show more